Home > Weather > Tilburg > Past weeks

Flag for Netherlands Past Weather in Tilburg, Netherlands — Yesterday and Last 2 Weeks

Now
54 °F

Light rain. Partly sunny.


Feels Like: 53 °F
Forecast: 45 / 70 °F
Wind: 5 mph from Southwest

Location: Gilze-Rijen

Current Time: May 25, 2016 at 11:20:29 AM

Latest Report: May 25, 2016 at 10:55 AM


Visibility: N/A

Pressure: 29.98 "Hg

Humidity: 88%

Dew Point: 50 °F

Location of TilburgLocation

Past Weather in Tilburg — Graph

°F

Tilburg Temperature Yesterday

Maximum temperature yesterday: 59 °F (at 1:55 PM)
Minimum temperature yesterday: 50 °F (at 3:55 AM)
Average temperature yesterday: 53 °F

High & Low Weather Summary for the Past Weeks

 TemperatureHumidityPressure
High79 °F (May 11, 4:55 PM)100% (May 18, 11:25 PM)30.15 "Hg (May 18, 11:25 PM)
Low36 °F (May 16, 3:25 AM)29% (May 13, 2:25 PM)29.47 "Hg (May 12, 4:55 PM)
Average57 °F73%29.87 "Hg
* Reported May 10 9:25 AM — May 25 9:56 AM, Tilburg, Weather by CustomWeather, © 2016

Note: Actual official high and low records may vary slightly from our data, if they occured in-between our weather recording intervals... More about our weather records

Advertising

Tilburg Weather History for the Previous 24 Hours

Scroll right to see more
 ConditionsComfort  
Time TempWeatherWind HumidityBarometerVisibility
9:56 AM
Wed, May 25
52 °FDrizzle. Partly sunny.6 mph88%29.98 "HgN/A
9:55 AM52 °FDrizzle. Broken clouds.6 mph94%29.98 "Hg6 mi
9:25 AM52 °FBroken clouds.6 mph88%29.98 "HgN/A
8:55 AM50 °FFog.6 mph100%29.98 "Hg5 mi
8:25 AM50 °FFog.7 mph94%29.98 "Hg1 mi
8:04 AM50 °FFog.5 mph94%29.98 "Hg2 mi
7:55 AM50 °FFog.6 mph94%29.98 "Hg4 mi
7:25 AM50 °FFog.3 mph94%29.98 "Hg6 mi
6:55 AM50 °FOvercast.5 mph94%29.98 "HgN/A
6:25 AM50 °FMostly cloudy.5 mph88%29.98 "HgN/A
5:55 AM50 °FMostly cloudy.2 mph88%29.98 "HgN/A
5:25 AM50 °FPassing clouds.3 mph88%29.98 "HgN/A
4:55 AM50 °FMostly cloudy.2 mph88%29.98 "HgN/A
4:25 AM50 °FMostly cloudy.3 mph88%30.01 "HgN/A
3:55 AM50 °FOvercast.3 mph88%29.98 "HgN/A
3:25 AM50 °FMostly cloudy.2 mph88%30.01 "HgN/A
2:55 AM50 °FOvercast.2 mph82%30.01 "HgN/A
2:25 AM50 °FOvercast.2 mph82%30.01 "HgN/A
1:55 AM50 °FOvercast.2 mph82%30.01 "HgN/A
1:25 AM50 °FOvercast.2 mph82%30.04 "HgN/A
12:55 AM50 °FOvercast.2 mph82%30.01 "HgN/A
12:25 AM50 °FOvercast.2 mph82%30.01 "HgN/A
11:55 PM
Tue, May 24
50 °FOvercast.5 mph76%30.01 "HgN/A
11:25 PM52 °FOvercast.7 mph67%30.04 "HgN/A
10:55 PM52 °FOvercast.6 mph72%30.04 "HgN/A
10:25 PM52 °FOvercast.6 mph72%30.04 "HgN/A
9:55 PM52 °FOvercast.8 mph72%30.04 "HgN/A
9:25 PM52 °FScattered clouds.8 mph77%30.04 "HgN/A
8:55 PM52 °FScattered clouds.8 mph72%30.04 "HgN/A
8:25 PM52 °FPartly sunny.8 mph72%30.04 "HgN/A
7:55 PM54 °FPartly sunny.9 mph67%30.04 "HgN/A
7:25 PM52 °FPassing clouds.10 mph72%30.04 "HgN/A
6:55 PM54 °FBroken clouds.12 mph67%30.04 "HgN/A
6:25 PM54 °FScattered clouds.12 mph72%30.04 "HgN/A
5:55 PM55 °FScattered clouds.13 mph67%30.04 "HgN/A
5:25 PM55 °FCool.13 mph67%30.04 "HgN/A
4:55 PM57 °FPartly sunny.12 mph67%30.04 "HgN/A
4:25 PM59 °FScattered clouds.10 mph63%30.04 "HgN/A
4:03 PM57 °FScattered clouds.12 mph63%30.04 "HgN/A
3:55 PM57 °FBroken clouds.12 mph67%30.04 "HgN/A
3:25 PM57 °FBroken clouds.12 mph63%30.04 "HgN/A
2:55 PM57 °FBroken clouds.12 mph67%30.04 "HgN/A
2:25 PM59 °FPartly sunny.12 mph63%30.04 "HgN/A
1:55 PM59 °FBroken clouds.12 mph63%30.04 "HgN/A
1:25 PM57 °FPartly sunny.12 mph67%30.07 "HgN/A
12:55 PM57 °FOvercast.12 mph67%30.07 "HgN/A
12:25 PM55 °FMostly cloudy.10 mph67%30.07 "HgN/A
12:00 PM55 °FOvercast.12 mph67%30.07 "HgN/A
11:55 AM55 °FMore clouds than sun.10 mph67%30.07 "HgN/A
11:25 AM55 °FOvercast.10 mph67%30.07 "HgN/A
11:03 AM55 °FPartly sunny.12 mph67%30.07 "HgN/A
Weather by CustomWeather, © 2016

See weather overviewHow to use our weather pages